STARLINK-36997, 68248

Orbit data source: Space-Track

STARLINK-36997, 68248 is a payload satellite owned by SpaceX/Seattle (US) in LEO that was launched on Tue, 17 Mar 2026 UTC via an FALCON 9 launch vehicle from the Air Force Eastern Test Range (AFETR). Payload-class satellites include a variety of spacecraft equipped with specific instruments for various scientific and technological missions. These include communications satellites like Starlink; space stations such as the ISS; scientific satellites like the Hubble; Earth observation satellites from companies like Planet Labs, Umbra, and HawkEye 360; GPS; miniature CubeSats for education and research; and military/defense satellites.

Loading next visibility...
Identifier
68248, 2026-054S
Orbit
LEO
Country
Flag of USUS
Related business
Manufacturer
SpaceX/Seattle
Mission
Operational spacecraft
Bus & Motor
STARLINK V2MO, Unknown motor
Mass
575 kg wet, ~530 kg dry
Launch date (UTC)
2026-03-17 (2 months ago)
Launch vehicle
FALCON 9
Launch site
Air Force Eastern Test Range (AFETR)
Object type
Payload
Rocket body
Debris
Shape & HBR
Unknown shape, 17.7 m
Radar Cross Section
RCS unknown

Expand to show TLE details & history
Last TLE update: 15 hours ago

TLE from 15 hours ago
0 STARLINK-36997
1 68248U 26054S   26145.12765213  .00017580  00000-0  60394-3 0  9996
2 68248  53.1573 301.9488 0000777  56.5862 303.5213 15.30217546 10697
Epoch: 2026-05-25T03:03Z
TLE epoch observation values (Epoch: 2026-05-25T03:03:49.144Z)
Latitude
Longitude
13.27414°
Altitude
475.768 km
Speed
7.629 km/s
True Right ascension
20h 07m 47s
True Declination
0° 00' 00"
Sunlit
Object was in full shadow at epoch
Visualization orbit readout
Latitude
Unknown
Longitude
Unknown
Altitude
Unknown
Speed
Unknown
Apparent Right ascension
Unknown
Apparent Declination
Unknown
Sunlit
N/A
Visualization observer readout
Local Sidereal Time
03:03:45
Azimuth
Unknown
Elevation
Unknown
Doppler factor
Unknown
Orbital elements
Apogee altitude
475.952 km
Perigee altitude
474.887 km
Semi-major axis
6,853.557 km
Eccentricity
0.00008
Inclination
53.1573°
RAAN
301.9488°
Arg. of periapsis
56.5862°
True anomaly
303.51388°
Mean anomaly
303.5213°
Eccentric anomaly
303.51759°
Mean motion
3.82533 °/min
Orbital period
94.11 mins
BSTAR
0.00060394
Loading maneuver chart data...
Computing Atmospheric mass density...
Loading historical data...
Loading historical data...
Loading historical data...
Loading historical data...
Loading historical data...
Loading historical data...
Loading historical data...

Documentation

Showing up to 5 results
|